sat.trackr.live / text

‹ back to catalog

TJS-14

NORAD 62804 · 2025-017A

PAYLOAD ACTIVE UNKNOWN

§ Identity

Operator
Country
PRC
Launch date
2025-01-23
Launch site
XICLF
Launch vehicle
Mass (kg)
RCS (m²)

Purposes: comms

External: N2YO · Heavens-Above · Gunter

§ Orbital elements

Epoch: 2026-09-19T20:28:46.134336Z

Period
1,436.11 min
Inclination
0.5856°
Eccentricity
0.0003167
Mean motion
1.00271066 rev/d
Perigee alt
35,773.4 km
Apogee alt
35,800.2 km
Semi-major
42,164.9 km
B*
0.0000e+0
RAAN
305.2334°
Arg perigee
323.0607°
Mean anomaly
56.0544°
Rev number
622

§ Raw data

TJS-141 62804U 25017A   26262.85331174  .00000111  00000+0  00000+0 0  99962 62804   0.5856 305.2334 0003167 323.0607  56.0544  1.00271066  6221

JSON: /api/v1/satellites/62804 · /tle

For live sub-satellite position, see the globe view (requires WebGL).

§ Visibility from observer

Set your observer location to see the next 7 days of passes ≥ 10°. The values pass through the URL so the page stays shareable.

No JS? Fill the form by hand. The geolocation button needs JavaScript.